Time,TemperatureF,DewpointF,PressureIn,WindDirection,WindDirectionDegrees,WindSpeedMPH,WindSpeedGustMPH,Humidity,HourlyPrecipIn,Conditions,Clouds,dailyrainin,SoftwareType,DateUTC
2013-03-31 00:01:00,54.4,53.8,29.98,South,186,0.0,0.0,98,0.00,,,0.00,WeatherCatV1.02B3,2013-03-31 05:01:00,
2013-03-31 00:06:00,54.5,53.9,29.98,South,186,0.0,0.0,98,0.00,,,0.00,WeatherCatV1.02B3,2013-03-31 05:06:00,
2013-03-31 00:11:00,54.5,53.9,29.98,South,186,0.0,0.0,98,0.00,,,0.00,WeatherCatV1.02B3,2013-03-31 05:11:00,
2013-03-31 00:16:00,54.5,53.9,29.98,South,186,0.0,0.0,98,0.00,,,0.00,WeatherCatV1.02B3,2013-03-31 05:16:00,
2013-03-31 00:21:00,54.5,53.9,29.98,South,186,0.0,0.0,98,0.00,,,0.00,WeatherCatV1.02B3,2013-03-31 05:21:00,
2013-03-31 00:26:00,54.5,53.9,29.98,South,186,0.0,0.0,98,0.00,,,0.00,WeatherCatV1.02B3,2013-03-31 05:26:00,
2013-03-31 00:31:00,54.5,53.9,29.98,South,186,0.0,0.0,98,0.00,,,0.00,WeatherCatV1.02B3,2013-03-31 05:31:00,
2013-03-31 00:36:00,54.5,53.9,29.98,South,186,0.0,0.0,98,0.00,,,0.00,WeatherCatV1.02B3,2013-03-31 05:36:00,
2013-03-31 00:41:00,54.4,53.8,29.98,South,186,0.0,0.0,98,0.00,,,0.00,WeatherCatV1.02B3,2013-03-31 05:41:00,
2013-03-31 00:46:00,54.4,53.8,29.98,South,186,0.0,0.0,98,0.00,,,0.00,WeatherCatV1.02B3,2013-03-31 05:46:00,
2013-03-31 00:51:00,54.5,53.9,29.97,South,186,0.0,0.0,98,0.00,,,0.00,WeatherCatV1.02B3,2013-03-31 05:51:00,
2013-03-31 00:56:00,54.4,53.8,29.98,South,186,0.0,0.0,98,0.00,,,0.00,WeatherCatV1.02B3,2013-03-31 05:56:00,
2013-03-31 01:01:00,54.5,54.2,29.98,South,186,0.0,0.0,99,0.00,,,0.00,WeatherCatV1.02B3,2013-03-31 06:01:00,
2013-03-31 01:06:00,54.7,54.4,29.98,South,186,0.0,0.0,99,0.00,,,0.00,WeatherCatV1.02B3,2013-03-31 06:06:00,
2013-03-31 01:11:00,54.9,54.6,29.98,South,186,0.0,0.0,99,0.00,,,0.00,WeatherCatV1.02B3,2013-03-31 06:11:00,
2013-03-31 01:16:00,54.9,54.3,29.98,South,186,0.0,0.0,98,0.00,,,0.00,WeatherCatV1.02B3,2013-03-31 06:16:00,
2013-03-31 01:21:00,54.9,54.6,29.98,South,186,0.0,0.0,99,0.00,,,0.00,WeatherCatV1.02B3,2013-03-31 06:21:00,
2013-03-31 01:26:00,54.8,54.2,29.98,South,186,0.0,0.0,98,0.00,,,0.00,WeatherCatV1.02B3,2013-03-31 06:26:00,
2013-03-31 01:31:00,54.9,54.6,29.98,South,186,0.0,0.0,99,0.00,,,0.00,WeatherCatV1.02B3,2013-03-31 06:31:00,
2013-03-31 01:36:00,55.0,54.7,29.98,South,186,0.0,0.0,99,0.00,,,0.00,WeatherCatV1.02B3,2013-03-31 06:36:00,
2013-03-31 01:41:00,55.2,54.9,29.97,South,186,0.0,0.0,99,0.00,,,0.00,WeatherCatV1.02B3,2013-03-31 06:41:00,
2013-03-31 01:46:00,55.3,55.0,29.97,South,186,0.0,0.0,99,0.00,,,0.00,WeatherCatV1.02B3,2013-03-31 06:46:00,
2013-03-31 01:51:00,55.5,55.2,29.97,South,186,0.0,0.0,99,0.00,,,0.00,WeatherCatV1.02B3,2013-03-31 06:51:00,
2013-03-31 01:56:00,55.6,55.3,29.96,South,186,0.0,0.0,99,0.00,,,0.00,WeatherCatV1.02B3,2013-03-31 06:56:00,
2013-03-31 02:01:00,55.8,55.5,29.96,South,186,0.0,0.0,99,0.00,,,0.00,WeatherCatV1.02B3,2013-03-31 07:01:00,
2013-03-31 02:06:00,56.0,55.7,29.96,South,186,0.0,0.0,99,0.00,,,0.00,WeatherCatV1.02B3,2013-03-31 07:06:00,
2013-03-31 02:11:00,56.2,55.9,29.96,South,186,0.0,0.0,99,0.00,,,0.00,WeatherCatV1.02B3,2013-03-31 07:11:00,
2013-03-31 02:16:00,56.3,56.0,29.95,South,186,0.0,0.0,99,0.00,,,0.00,WeatherCatV1.02B3,2013-03-31 07:16:00,
2013-03-31 02:21:00,56.4,56.1,29.95,South,186,0.0,0.0,99,0.00,,,0.00,WeatherCatV1.02B3,2013-03-31 07:21:00,
2013-03-31 02:26:00,56.4,56.1,29.95,South,186,0.0,0.0,99,0.00,,,0.00,WeatherCatV1.02B3,2013-03-31 07:26:00,
2013-03-31 02:31:00,56.4,56.1,29.95,South,186,0.0,0.0,99,0.00,,,0.00,WeatherCatV1.02B3,2013-03-31 07:31:00,
2013-03-31 02:36:00,56.5,56.2,29.94,South,186,0.0,0.0,99,0.00,,,0.00,WeatherCatV1.02B3,2013-03-31 07:36:00,
2013-03-31 02:41:00,56.5,56.2,29.94,South,186,0.0,1.0,99,0.00,,,0.00,WeatherCatV1.02B3,2013-03-31 07:41:00,
2013-03-31 02:46:00,56.5,56.2,29.94,South,186,0.0,0.0,99,0.00,,,0.00,WeatherCatV1.02B3,2013-03-31 07:46:00,
2013-03-31 02:51:00,56.5,56.2,29.94,South,181,3.0,5.0,99,0.00,,,0.00,WeatherCatV1.02B3,2013-03-31 07:51:00,
2013-03-31 02:56:00,56.5,56.2,29.94,SE,127,0.0,5.0,99,0.00,,,0.00,WeatherCatV1.02B3,2013-03-31 07:56:00,
2013-03-31 03:01:00,56.6,56.3,29.94,South,173,0.0,0.0,99,0.00,,,0.00,WeatherCatV1.02B3,2013-03-31 08:01:00,
2013-03-31 03:06:00,56.7,56.4,29.94,South,188,0.0,0.0,99,0.00,,,0.00,WeatherCatV1.02B3,2013-03-31 08:06:00,
2013-03-31 03:11:00,57.1,56.8,29.95,South,180,5.0,5.0,99,0.00,,,0.00,WeatherCatV1.02B3,2013-03-31 08:11:00,
2013-03-31 03:16:00,57.4,57.1,29.95,SSE,167,4.0,5.0,99,0.00,,,0.00,WeatherCatV1.02B3,2013-03-31 08:16:00,
2013-03-31 03:21:00,57.6,57.3,29.95,South,186,7.0,7.0,99,0.00,,,0.01,WeatherCatV1.02B3,2013-03-31 08:21:00,
2013-03-31 03:26:00,57.9,57.6,29.94,South,189,6.0,10.0,99,0.00,,,0.01,WeatherCatV1.02B3,2013-03-31 08:26:00,
2013-03-31 03:31:00,58.2,57.9,29.94,South,178,6.0,10.0,99,0.05,,,0.02,WeatherCatV1.02B3,2013-03-31 08:31:00,
2013-03-31 03:36:00,58.1,57.8,29.94,SSW,199,4.0,5.0,99,0.52,,,0.05,WeatherCatV1.02B3,2013-03-31 08:36:00,
2013-03-31 03:41:00,58.2,57.9,29.94,SSW,202,5.0,7.0,99,0.10,,,0.05,WeatherCatV1.02B3,2013-03-31 08:41:00,
2013-03-31 03:46:00,58.2,57.9,29.94,South,180,4.0,5.0,99,0.05,,,0.05,WeatherCatV1.02B3,2013-03-31 08:46:00,
2013-03-31 03:51:00,58.2,57.9,29.93,South,180,0.0,5.0,99,0.05,,,0.06,WeatherCatV1.02B3,2013-03-31 08:51:00,
2013-03-31 03:56:00,58.2,57.9,29.93,SE,146,0.0,0.0,99,0.13,,,0.07,WeatherCatV1.02B3,2013-03-31 08:56:00,
2013-03-31 04:01:00,58.3,58.0,29.91,SE,126,0.0,2.0,99,0.07,,,0.07,WeatherCatV1.02B3,2013-03-31 09:01:00,
2013-03-31 04:06:00,58.4,58.1,29.92,SSW,192,1.0,2.0,99,0.05,,,0.07,WeatherCatV1.02B3,2013-03-31 09:06:00,
2013-03-31 04:11:00,58.5,58.2,29.92,SSW,193,3.0,6.0,99,0.00,,,0.07,WeatherCatV1.02B3,2013-03-31 09:11:00,
2013-03-31 04:16:00,58.5,58.2,29.93,SSW,192,6.0,7.0,99,0.00,,,0.07,WeatherCatV1.02B3,2013-03-31 09:16:00,
2013-03-31 04:21:00,58.7,58.4,29.93,SSW,194,6.0,7.0,99,0.00,,,0.07,WeatherCatV1.02B3,2013-03-31 09:21:00,
2013-03-31 04:26:00,58.8,58.5,29.92,South,183,6.0,8.0,99,0.00,,,0.07,WeatherCatV1.02B3,2013-03-31 09:26:00,
2013-03-31 04:31:00,58.9,58.6,29.91,South,190,6.0,10.0,99,0.00,,,0.07,WeatherCatV1.02B3,2013-03-31 09:31:00,
2013-03-31 04:36:00,58.9,58.6,29.90,South,184,5.0,8.0,99,0.00,,,0.07,WeatherCatV1.02B3,2013-03-31 09:36:00,
2013-03-31 04:41:00,59.0,58.7,29.91,South,177,3.0,9.0,99,0.00,,,0.08,WeatherCatV1.02B3,2013-03-31 09:41:00,
2013-03-31 04:46:00,59.0,58.7,29.92,SSW,198,6.0,6.0,99,0.12,,,0.09,WeatherCatV1.02B3,2013-03-31 09:46:00,
2013-03-31 04:51:00,59.0,58.7,29.92,SSW,204,1.0,3.0,99,0.07,,,0.09,WeatherCatV1.02B3,2013-03-31 09:51:00,
2013-03-31 04:56:00,58.9,58.6,29.92,SSW,204,3.0,4.0,99,0.04,,,0.09,WeatherCatV1.02B3,2013-03-31 09:56:00,
2013-03-31 05:01:00,58.8,58.5,29.95,WNW,292,11.0,11.0,99,0.00,,,0.09,WeatherCatV1.02B3,2013-03-31 10:01:00,
2013-03-31 05:06:00,58.6,58.3,29.98,NW,311,18.0,35.0,99,1.21,,,0.22,WeatherCatV1.02B3,2013-03-31 10:06:00,
2013-03-31 05:11:00,57.5,56.7,29.96,NW,323,9.0,11.0,97,0.67,,,0.40,WeatherCatV1.02B3,2013-03-31 10:11:00,
2013-03-31 05:16:00,57.0,56.2,29.95,North,350,4.0,6.0,97,0.22,,,0.41,WeatherCatV1.02B3,2013-03-31 10:16:00,
2013-03-31 05:21:00,56.8,56.0,29.92,ENE,59,3.0,6.0,97,0.11,,,0.42,WeatherCatV1.02B3,2013-03-31 10:21:00,
2013-03-31 05:26:00,56.8,56.0,29.92,SSW,209,5.0,7.0,97,0.16,,,0.43,WeatherCatV1.02B3,2013-03-31 10:26:00,
2013-03-31 05:31:00,56.6,55.8,29.91,ENE,75,2.0,5.0,97,0.07,,,0.43,WeatherCatV1.02B3,2013-03-31 10:31:00,
2013-03-31 05:36:00,56.6,55.8,29.92,NE,52,0.0,0.0,97,0.05,,,0.43,WeatherCatV1.02B3,2013-03-31 10:36:00,
2013-03-31 05:41:00,56.5,55.7,29.93,SSW,210,6.0,9.0,97,0.00,,,0.43,WeatherCatV1.02B3,2013-03-31 10:41:00,
2013-03-31 05:46:00,56.3,55.5,29.93,SSW,196,2.0,6.0,97,0.00,,,0.43,WeatherCatV1.02B3,2013-03-31 10:46:00,
2013-03-31 05:51:00,56.3,55.5,29.93,SSW,197,4.0,5.0,97,0.00,,,0.43,WeatherCatV1.02B3,2013-03-31 10:51:00,
2013-03-31 05:56:00,56.2,55.4,29.92,SSW,197,3.0,3.0,97,0.00,,,0.43,WeatherCatV1.02B3,2013-03-31 10:56:00,
2013-03-31 06:01:00,56.0,54.9,29.93,South,189,3.0,6.0,96,0.00,,,0.43,WeatherCatV1.02B3,2013-03-31 11:01:00,
2013-03-31 06:06:00,55.7,54.9,29.92,South,173,3.0,5.0,97,0.00,,,0.43,WeatherCatV1.02B3,2013-03-31 11:06:00,
2013-03-31 06:11:00,55.6,54.8,29.92,SSE,157,2.0,7.0,97,0.00,,,0.43,WeatherCatV1.02B3,2013-03-31 11:11:00,
2013-03-31 06:16:00,55.4,54.6,29.92,South,175,6.0,7.0,97,0.00,,,0.43,WeatherCatV1.02B3,2013-03-31 11:16:00,
2013-03-31 06:21:00,55.3,54.5,29.91,SSW,199,5.0,8.0,97,0.00,,,0.43,WeatherCatV1.02B3,2013-03-31 11:21:00,
2013-03-31 06:26:00,55.2,54.4,29.91,SE,128,6.0,7.0,97,0.00,,,0.43,WeatherCatV1.02B3,2013-03-31 11:26:00,
2013-03-31 06:31:00,55.1,54.3,29.91,SE,144,2.0,9.0,97,0.00,,,0.43,WeatherCatV1.02B3,2013-03-31 11:31:00,
2013-03-31 06:36:00,55.0,54.2,29.91,South,191,5.0,7.0,97,0.00,,,0.43,WeatherCatV1.02B3,2013-03-31 11:36:00,
2013-03-31 06:41:00,55.0,54.2,29.91,South,176,6.0,8.0,97,0.00,,,0.43,WeatherCatV1.02B3,2013-03-31 11:41:00,
2013-03-31 06:46:00,55.0,54.2,29.91,SSE,168,4.0,8.0,97,0.00,,,0.43,WeatherCatV1.02B3,2013-03-31 11:46:00,
2013-03-31 06:51:00,55.0,54.2,29.92,South,186,6.0,8.0,97,0.00,,,0.43,WeatherCatV1.02B3,2013-03-31 11:51:00,
2013-03-31 06:56:00,54.9,54.1,29.92,South,190,6.0,9.0,97,0.00,,,0.43,WeatherCatV1.02B3,2013-03-31 11:56:00,
2013-03-31 07:01:00,54.8,54.0,29.92,South,186,6.0,9.0,97,0.00,,,0.43,WeatherCatV1.02B3,2013-03-31 12:01:00,
2013-03-31 07:06:00,54.7,53.9,29.92,South,181,5.0,10.0,97,0.00,,,0.43,WeatherCatV1.02B3,2013-03-31 12:06:00,
2013-03-31 07:11:00,54.6,53.8,29.92,South,181,4.0,8.0,97,0.00,,,0.43,WeatherCatV1.02B3,2013-03-31 12:11:00,
2013-03-31 07:16:00,54.6,53.8,29.92,South,189,6.0,7.0,97,0.00,,,0.43,WeatherCatV1.02B3,2013-03-31 12:16:00,
2013-03-31 07:21:00,54.6,53.8,29.92,SSW,201,5.0,7.0,97,0.00,,,0.43,WeatherCatV1.02B3,2013-03-31 12:21:00,
2013-03-31 07:26:00,54.7,53.9,29.93,SSW,194,3.0,6.0,97,0.00,,,0.43,WeatherCatV1.02B3,2013-03-31 12:26:00,
2013-03-31 07:31:00,54.9,54.1,29.93,SSW,202,5.0,6.0,97,0.00,,,0.43,WeatherCatV1.02B3,2013-03-31 12:31:00,
2013-03-31 07:36:00,55.3,54.5,29.93,SSW,205,7.0,7.0,97,0.00,,,0.43,WeatherCatV1.02B3,2013-03-31 12:36:00,
2013-03-31 07:41:00,55.7,54.9,29.93,SSW,207,5.0,7.0,97,0.00,,,0.43,WeatherCatV1.02B3,2013-03-31 12:41:00,
2013-03-31 07:46:00,55.8,55.0,29.94,SW,217,6.0,6.0,97,0.00,,,0.43,WeatherCatV1.02B3,2013-03-31 12:46:00,
2013-03-31 07:51:00,56.0,55.2,29.94,SSW,205,6.0,8.0,97,0.00,,,0.43,WeatherCatV1.02B3,2013-03-31 12:51:00,
2013-03-31 07:56:00,56.1,55.3,29.94,SSW,209,7.0,10.0,97,0.00,,,0.43,WeatherCatV1.02B3,2013-03-31 12:56:00,
2013-03-31 08:01:00,56.1,55.3,29.93,SSW,213,7.0,8.0,97,0.00,,,0.43,WeatherCatV1.02B3,2013-03-31 13:01:00,
2013-03-31 08:06:00,56.1,55.3,29.94,SSW,207,6.0,8.0,97,0.00,,,0.43,WeatherCatV1.02B3,2013-03-31 13:06:00,
2013-03-31 08:11:00,56.2,55.4,29.94,SSW,209,4.0,6.0,97,0.00,,,0.43,WeatherCatV1.02B3,2013-03-31 13:11:00,
2013-03-31 08:16:00,56.4,55.6,29.94,SSW,211,4.0,7.0,97,0.00,,,0.43,WeatherCatV1.02B3,2013-03-31 13:16:00,
2013-03-31 08:21:00,56.6,55.8,29.94,SSW,211,3.0,5.0,97,0.00,,,0.43,WeatherCatV1.02B3,2013-03-31 13:21:00,
2013-03-31 08:26:00,56.8,56.0,29.94,SSW,211,4.0,6.0,97,0.00,,,0.43,WeatherCatV1.02B3,2013-03-31 13:26:00,
2013-03-31 08:31:00,57.0,56.2,29.93,SSW,202,4.0,5.0,97,0.00,,,0.43,WeatherCatV1.02B3,2013-03-31 13:31:00,
2013-03-31 08:36:00,57.3,56.5,29.93,SSW,202,4.0,5.0,97,0.00,,,0.43,WeatherCatV1.02B3,2013-03-31 13:36:00,
2013-03-31 08:41:00,57.5,56.7,29.93,SSW,201,5.0,6.0,97,0.00,,,0.43,WeatherCatV1.02B3,2013-03-31 13:41:00,
2013-03-31 08:46:00,57.8,56.7,29.93,SSW,201,4.0,4.0,96,0.00,,,0.43,WeatherCatV1.02B3,2013-03-31 13:46:00,
2013-03-31 08:51:00,58.0,56.9,29.93,SSW,201,5.0,5.0,96,0.00,,,0.43,WeatherCatV1.02B3,2013-03-31 13:51:00,
2013-03-31 08:56:00,58.2,57.1,29.92,SSW,201,1.0,5.0,96,0.00,,,0.43,WeatherCatV1.02B3,2013-03-31 13:56:00,
2013-03-31 09:01:00,58.5,57.4,29.92,SSW,192,2.0,3.0,96,0.00,,,0.43,WeatherCatV1.02B3,2013-03-31 14:01:00,
2013-03-31 09:06:00,58.8,57.7,29.92,SSW,192,1.0,2.0,96,0.00,,,0.43,WeatherCatV1.02B3,2013-03-31 14:06:00,
2013-03-31 09:11:00,59.1,58.0,29.93,SSW,208,6.0,7.0,96,0.00,,,0.43,WeatherCatV1.02B3,2013-03-31 14:11:00,
2013-03-31 09:16:00,59.5,58.4,29.93,SSW,196,7.0,10.0,96,0.00,,,0.43,WeatherCatV1.02B3,2013-03-31 14:16:00,
2013-03-31 09:21:00,59.7,58.3,29.93,SW,223,5.0,8.0,95,0.00,,,0.43,WeatherCatV1.02B3,2013-03-31 14:21:00,
2013-03-31 09:26:00,59.8,58.4,29.94,SW,228,6.0,7.0,95,0.00,,,0.43,WeatherCatV1.02B3,2013-03-31 14:26:00,
2013-03-31 09:31:00,60.0,58.6,29.94,SW,234,6.0,8.0,95,0.00,,,0.43,WeatherCatV1.02B3,2013-03-31 14:31:00,
2013-03-31 09:36:00,60.2,58.8,29.94,SW,221,5.0,9.0,95,0.00,,,0.43,WeatherCatV1.02B3,2013-03-31 14:36:00,
2013-03-31 09:41:00,60.4,59.0,29.94,SSW,212,6.0,7.0,95,0.00,,,0.43,WeatherCatV1.02B3,2013-03-31 14:41:00,
2013-03-31 09:46:00,60.6,59.2,29.93,SW,225,5.0,8.0,95,0.00,,,0.43,WeatherCatV1.02B3,2013-03-31 14:46:00,
2013-03-31 09:51:00,61.0,59.6,29.93,SSW,211,7.0,9.0,95,0.00,,,0.43,WeatherCatV1.02B3,2013-03-31 14:51:00,
2013-03-31 09:56:00,61.3,59.9,29.93,SW,214,6.0,9.0,95,0.00,,,0.43,WeatherCatV1.02B3,2013-03-31 14:56:00,
2013-03-31 10:01:00,61.7,60.2,29.93,SSW,212,7.0,9.0,95,0.00,,,0.43,WeatherCatV1.02B3,2013-03-31 15:01:00,
2013-03-31 10:06:00,62.0,60.2,29.93,SW,221,7.0,9.0,94,0.00,,,0.43,WeatherCatV1.02B3,2013-03-31 15:06:00,
2013-03-31 10:11:00,62.1,60.3,29.94,SW,223,8.0,11.0,94,0.00,,,0.43,WeatherCatV1.02B3,2013-03-31 15:11:00,
2013-03-31 10:16:00,62.3,60.2,29.94,SW,226,6.0,9.0,93,0.00,,,0.43,WeatherCatV1.02B3,2013-03-31 15:16:00,
2013-03-31 10:21:00,62.5,60.7,29.94,SW,230,9.0,10.0,94,0.00,,,0.43,WeatherCatV1.02B3,2013-03-31 15:21:00,
2013-03-31 10:26:00,62.9,61.1,29.95,SW,226,11.0,11.0,94,0.00,,,0.43,WeatherCatV1.02B3,2013-03-31 15:26:00,
2013-03-31 10:31:00,63.0,60.9,29.95,SW,231,8.0,9.0,93,0.00,,,0.43,WeatherCatV1.02B3,2013-03-31 15:31:00,
2013-03-31 10:36:00,63.1,61.0,29.96,SW,227,7.0,9.0,93,0.00,,,0.43,WeatherCatV1.02B3,2013-03-31 15:36:00,
2013-03-31 10:41:00,63.1,61.0,29.96,SW,218,7.0,10.0,93,0.00,,,0.43,WeatherCatV1.02B3,2013-03-31 15:41:00,
2013-03-31 10:46:00,63.2,61.1,29.96,SW,230,6.0,8.0,93,0.00,,,0.43,WeatherCatV1.02B3,2013-03-31 15:46:00,
2013-03-31 10:51:00,63.2,60.8,29.95,SW,230,6.0,9.0,92,0.00,,,0.43,WeatherCatV1.02B3,2013-03-31 15:51:00,
2013-03-31 10:56:00,63.3,60.9,29.96,SSW,201,7.0,10.0,92,0.00,,,0.43,WeatherCatV1.02B3,2013-03-31 15:56:00,
2013-03-31 11:01:00,63.5,61.4,29.96,SW,227,8.0,10.0,93,0.00,,,0.43,WeatherCatV1.02B3,2013-03-31 16:01:00,
2013-03-31 11:06:00,63.8,61.7,29.96,SW,225,7.0,9.0,93,0.00,,,0.43,WeatherCatV1.02B3,2013-03-31 16:06:00,
2013-03-31 11:11:00,64.0,61.9,29.97,WSW,243,8.0,10.0,93,0.00,,,0.43,WeatherCatV1.02B3,2013-03-31 16:11:00,
2013-03-31 11:16:00,64.2,61.8,29.97,WSW,247,9.0,10.0,92,0.00,,,0.43,WeatherCatV1.02B3,2013-03-31 16:16:00,
2013-03-31 11:21:00,64.3,61.6,29.97,WSW,247,9.0,10.0,91,0.00,,,0.43,WeatherCatV1.02B3,2013-03-31 16:21:00,
2013-03-31 11:26:00,64.3,61.6,29.97,SW,235,9.0,10.0,91,0.00,,,0.43,WeatherCatV1.02B3,2013-03-31 16:26:00,
2013-03-31 11:31:00,64.1,61.1,29.98,SW,236,11.0,12.0,90,0.00,,,0.43,WeatherCatV1.02B3,2013-03-31 16:31:00,
2013-03-31 11:36:00,63.9,60.9,29.98,SW,236,9.0,10.0,90,0.00,,,0.43,WeatherCatV1.02B3,2013-03-31 16:36:00,
2013-03-31 11:41:00,63.7,61.0,29.98,WSW,248,8.0,9.0,91,0.34,,,0.44,WeatherCatV1.02B3,2013-03-31 16:41:00,
2013-03-31 11:46:00,63.2,60.8,29.98,WSW,248,7.0,12.0,92,0.78,,,0.50,WeatherCatV1.02B3,2013-03-31 16:46:00,
2013-03-31 11:51:00,62.8,60.7,29.99,WSW,247,6.0,11.0,93,0.17,,,0.52,WeatherCatV1.02B3,2013-03-31 16:51:00,
2013-03-31 11:56:00,62.6,60.8,29.99,West,259,4.0,7.0,94,0.10,,,0.52,WeatherCatV1.02B3,2013-03-31 16:56:00,
2013-03-31 12:01:00,62.4,60.9,29.99,West,266,4.0,7.0,95,0.06,,,0.52,WeatherCatV1.02B3,2013-03-31 17:01:00,
2013-03-31 12:06:00,62.3,60.8,29.98,WNW,300,0.0,5.0,95,0.04,,,0.52,WeatherCatV1.02B3,2013-03-31 17:06:00,
2013-03-31 12:11:00,62.2,60.7,29.96,West,267,0.0,3.0,95,0.00,,,0.52,WeatherCatV1.02B3,2013-03-31 17:11:00,
2013-03-31 12:16:00,62.1,60.6,29.95,West,267,0.0,0.0,95,0.00,,,0.53,WeatherCatV1.02B3,2013-03-31 17:16:00,
2013-03-31 12:21:00,62.2,60.7,29.95,West,267,0.0,1.0,95,0.00,,,0.53,WeatherCatV1.02B3,2013-03-31 17:21:00,
2013-03-31 12:26:00,62.1,60.6,29.94,West,267,0.0,0.0,95,0.00,,,0.53,WeatherCatV1.02B3,2013-03-31 17:26:00,
2013-03-31 12:31:00,62.2,60.7,29.94,SSW,210,6.0,6.0,95,0.00,,,0.53,WeatherCatV1.02B3,2013-03-31 17:31:00,
2013-03-31 12:36:00,62.1,60.6,29.94,SW,221,8.0,8.0,95,0.00,,,0.53,WeatherCatV1.02B3,2013-03-31 17:36:00,
2013-03-31 12:41:00,61.9,60.4,29.94,SSW,194,7.0,10.0,95,0.00,,,0.53,WeatherCatV1.02B3,2013-03-31 17:41:00,
2013-03-31 12:46:00,61.6,60.2,29.93,SSW,201,12.0,13.0,95,0.00,,,0.53,WeatherCatV1.02B3,2013-03-31 17:46:00,
2013-03-31 12:51:00,61.5,60.3,29.92,SSE,167,5.0,10.0,96,0.00,,,0.54,WeatherCatV1.02B3,2013-03-31 17:51:00,
2013-03-31 12:56:00,61.4,60.2,29.91,South,176,8.0,11.0,96,0.00,,,0.54,WeatherCatV1.02B3,2013-03-31 17:56:00,
2013-03-31 13:01:00,61.4,60.2,29.89,South,182,11.0,15.0,96,0.00,,,0.54,WeatherCatV1.02B3,2013-03-31 18:01:00,
2013-03-31 13:06:00,61.5,60.3,29.90,South,181,0.0,9.0,96,0.00,,,0.54,WeatherCatV1.02B3,2013-03-31 18:06:00,
2013-03-31 13:11:00,61.7,60.5,29.93,NNW,329,20.0,29.0,96,0.00,,,0.54,WeatherCatV1.02B3,2013-03-31 18:11:00,
2013-03-31 13:16:00,61.3,59.9,29.95,NW,324,15.0,15.0,95,0.00,,,0.54,WeatherCatV1.02B3,2013-03-31 18:16:00,
2013-03-31 13:21:00,60.1,58.4,29.94,North,349,13.0,15.0,94,0.00,,,0.54,WeatherCatV1.02B3,2013-03-31 18:21:00,
2013-03-31 13:26:00,59.6,57.9,29.94,NNE,20,13.0,15.0,94,0.00,,,0.54,WeatherCatV1.02B3,2013-03-31 18:26:00,
2013-03-31 13:31:00,59.4,58.0,29.94,North,11,7.0,9.0,95,0.00,,,0.54,WeatherCatV1.02B3,2013-03-31 18:31:00,
2013-03-31 13:36:00,59.3,57.6,29.94,NNE,24,8.0,13.0,94,0.00,,,0.54,WeatherCatV1.02B3,2013-03-31 18:36:00,
2013-03-31 13:41:00,59.4,57.7,29.94,NE,36,7.0,10.0,94,0.00,,,0.54,WeatherCatV1.02B3,2013-03-31 18:41:00,
2013-03-31 13:46:00,59.5,58.1,29.94,North,9,8.0,11.0,95,0.00,,,0.54,WeatherCatV1.02B3,2013-03-31 18:46:00,
2013-03-31 13:51:00,59.5,58.1,29.93,ENE,59,7.0,10.0,95,0.00,,,0.54,WeatherCatV1.02B3,2013-03-31 18:51:00,
2013-03-31 13:56:00,59.5,58.1,29.91,NE,47,4.0,8.0,95,0.00,,,0.54,WeatherCatV1.02B3,2013-03-31 18:56:00,
2013-03-31 14:01:00,59.3,57.6,29.91,ENE,72,3.0,8.0,94,0.00,,,0.54,WeatherCatV1.02B3,2013-03-31 19:01:00,
2013-03-31 14:06:00,59.3,57.6,29.91,ENE,68,4.0,9.0,94,0.00,,,0.54,WeatherCatV1.02B3,2013-03-31 19:06:00,
2013-03-31 14:11:00,59.4,57.7,29.92,NE,53,5.0,10.0,94,0.00,,,0.54,WeatherCatV1.02B3,2013-03-31 19:11:00,
2013-03-31 14:16:00,59.5,57.8,29.91,NNE,22,5.0,9.0,94,0.00,,,0.54,WeatherCatV1.02B3,2013-03-31 19:16:00,
2013-03-31 14:21:00,59.6,57.9,29.92,NE,39,6.0,10.0,94,0.00,,,0.54,WeatherCatV1.02B3,2013-03-31 19:21:00,
2013-03-31 14:26:00,59.7,58.0,29.93,NNE,15,7.0,8.0,94,0.00,,,0.54,WeatherCatV1.02B3,2013-03-31 19:26:00,
2013-03-31 14:31:00,59.8,58.1,29.92,NE,38,1.0,4.0,94,0.00,,,0.54,WeatherCatV1.02B3,2013-03-31 19:31:00,
2013-03-31 14:36:00,59.9,58.2,29.93,North,5,5.0,6.0,94,0.00,,,0.54,WeatherCatV1.02B3,2013-03-31 19:36:00,
2013-03-31 14:41:00,60.1,58.4,29.92,NE,39,3.0,4.0,94,0.00,,,0.54,WeatherCatV1.02B3,2013-03-31 19:41:00,
2013-03-31 14:46:00,60.1,58.1,29.91,ENE,60,7.0,7.0,93,0.00,,,0.54,WeatherCatV1.02B3,2013-03-31 19:46:00,
2013-03-31 14:51:00,60.2,58.2,29.92,NNE,31,6.0,6.0,93,0.00,,,0.54,WeatherCatV1.02B3,2013-03-31 19:51:00,
2013-03-31 14:56:00,60.3,58.3,29.91,NE,38,0.0,0.0,93,0.00,,,0.54,WeatherCatV1.02B3,2013-03-31 19:56:00,
2013-03-31 15:01:00,60.3,58.0,29.91,NNE,28,2.0,7.0,92,0.00,,,0.54,WeatherCatV1.02B3,2013-03-31 20:01:00,
2013-03-31 15:06:00,60.4,58.1,29.91,NE,39,3.0,5.0,92,0.00,,,0.54,WeatherCatV1.02B3,2013-03-31 20:06:00,
2013-03-31 15:11:00,60.4,58.1,29.91,NE,39,4.0,6.0,92,0.00,,,0.54,WeatherCatV1.02B3,2013-03-31 20:11:00,
2013-03-31 15:16:00,60.5,58.2,29.91,NNE,15,7.0,7.0,92,0.00,,,0.54,WeatherCatV1.02B3,2013-03-31 20:16:00,
2013-03-31 15:21:00,60.6,58.3,29.91,NNE,20,6.0,7.0,92,0.00,,,0.54,WeatherCatV1.02B3,2013-03-31 20:21:00,
2013-03-31 15:26:00,60.7,58.4,29.91,NNE,23,3.0,5.0,92,0.00,,,0.54,WeatherCatV1.02B3,2013-03-31 20:26:00,
2013-03-31 15:31:00,60.8,58.5,29.91,NNE,32,5.0,5.0,92,0.00,,,0.54,WeatherCatV1.02B3,2013-03-31 20:31:00,
2013-03-31 15:36:00,60.9,58.6,29.91,NNE,22,5.0,6.0,92,0.00,,,0.54,WeatherCatV1.02B3,2013-03-31 20:36:00,
2013-03-31 15:41:00,61.0,58.7,29.91,NE,45,3.0,4.0,92,0.00,,,0.54,WeatherCatV1.02B3,2013-03-31 20:41:00,
2013-03-31 15:46:00,61.0,58.7,29.91,NE,45,0.0,1.0,92,0.00,,,0.54,WeatherCatV1.02B3,2013-03-31 20:46:00,
2013-03-31 15:51:00,61.1,58.8,29.91,NNE,12,0.0,5.0,92,0.00,,,0.54,WeatherCatV1.02B3,2013-03-31 20:51:00,
2013-03-31 15:56:00,61.3,59.0,29.91,North,355,4.0,4.0,92,0.00,,,0.54,WeatherCatV1.02B3,2013-03-31 20:56:00,
2013-03-31 16:01:00,61.4,59.1,29.92,North,0,3.0,6.0,92,0.00,,,0.54,WeatherCatV1.02B3,2013-03-31 21:01:00,
2013-03-31 16:06:00,61.5,59.2,29.92,NNE,27,3.0,5.0,92,0.00,,,0.54,WeatherCatV1.02B3,2013-03-31 21:06:00,
2013-03-31 16:11:00,61.6,59.2,29.92,NE,35,4.0,5.0,92,0.00,,,0.54,WeatherCatV1.02B3,2013-03-31 21:11:00,
2013-03-31 16:16:00,61.7,59.0,29.91,NNE,19,1.0,5.0,91,0.00,,,0.54,WeatherCatV1.02B3,2013-03-31 21:16:00,
2013-03-31 16:21:00,61.8,59.4,29.91,NNE,19,2.0,2.0,92,0.00,,,0.54,WeatherCatV1.02B3,2013-03-31 21:21:00,
2013-03-31 16:26:00,62.0,59.3,29.91,NNE,19,0.0,0.0,91,0.00,,,0.54,WeatherCatV1.02B3,2013-03-31 21:26:00,
2013-03-31 16:31:00,62.0,59.3,29.91,NNE,19,0.0,2.0,91,0.00,,,0.54,WeatherCatV1.02B3,2013-03-31 21:31:00,
2013-03-31 16:36:00,62.1,59.4,29.91,NNE,19,0.0,2.0,91,0.00,,,0.54,WeatherCatV1.02B3,2013-03-31 21:36:00,
2013-03-31 16:41:00,62.1,59.1,29.91,NNE,19,0.0,0.0,90,0.00,,,0.54,WeatherCatV1.02B3,2013-03-31 21:41:00,
2013-03-31 16:46:00,62.2,59.2,29.91,NNE,19,3.0,3.0,90,0.00,,,0.54,WeatherCatV1.02B3,2013-03-31 21:46:00,
2013-03-31 16:51:00,62.4,59.4,29.91,NNE,19,0.0,0.0,90,0.00,,,0.54,WeatherCatV1.02B3,2013-03-31 21:51:00,
2013-03-31 16:56:00,62.5,59.5,29.91,NNE,19,0.0,0.0,90,0.00,,,0.54,WeatherCatV1.02B3,2013-03-31 21:56:00,
2013-03-31 17:01:00,62.5,59.5,29.91,NNE,19,0.0,0.0,90,0.00,,,0.54,WeatherCatV1.02B3,2013-03-31 22:01:00,
2013-03-31 17:06:00,62.6,59.6,29.91,NNE,19,0.0,0.0,90,0.00,,,0.54,WeatherCatV1.02B3,2013-03-31 22:06:00,
2013-03-31 17:11:00,62.8,59.8,29.90,NNE,19,0.0,1.0,90,0.00,,,0.54,WeatherCatV1.02B3,2013-03-31 22:11:00,
2013-03-31 17:16:00,63.0,60.0,29.90,NNE,19,1.0,1.0,90,0.00,,,0.54,WeatherCatV1.02B3,2013-03-31 22:16:00,
2013-03-31 17:21:00,63.4,60.4,29.90,NNE,19,0.0,3.0,90,0.00,,,0.54,WeatherCatV1.02B3,2013-03-31 22:21:00,
2013-03-31 17:26:00,63.6,60.3,29.90,NW,318,1.0,4.0,89,0.00,,,0.54,WeatherCatV1.02B3,2013-03-31 22:26:00,
2013-03-31 17:31:00,63.8,60.2,29.90,NW,306,5.0,5.0,88,0.00,,,0.54,WeatherCatV1.02B3,2013-03-31 22:31:00,
2013-03-31 17:36:00,63.8,60.2,29.90,NW,316,4.0,5.0,88,0.00,,,0.54,WeatherCatV1.02B3,2013-03-31 22:36:00,
2013-03-31 17:41:00,63.7,60.1,29.90,NW,322,8.0,9.0,88,0.00,,,0.54,WeatherCatV1.02B3,2013-03-31 22:41:00,
2013-03-31 17:46:00,63.6,60.0,29.90,NW,315,7.0,8.0,88,0.00,,,0.54,WeatherCatV1.02B3,2013-03-31 22:46:00,
2013-03-31 17:51:00,63.3,59.7,29.90,NW,311,5.0,6.0,88,0.00,,,0.54,WeatherCatV1.02B3,2013-03-31 22:51:00,
2013-03-31 17:56:00,63.2,59.9,29.91,NNW,327,3.0,6.0,89,0.00,,,0.54,WeatherCatV1.02B3,2013-03-31 22:56:00,
2013-03-31 18:01:00,63.5,60.5,29.91,NW,319,7.0,9.0,90,0.00,,,0.54,WeatherCatV1.02B3,2013-03-31 23:01:00,
2013-03-31 18:06:00,63.2,59.6,29.91,NW,315,5.0,9.0,88,0.00,,,0.54,WeatherCatV1.02B3,2013-03-31 23:06:00,
2013-03-31 18:11:00,63.0,59.4,29.91,NW,308,8.0,8.0,88,0.00,,,0.54,WeatherCatV1.02B3,2013-03-31 23:11:00,
2013-03-31 18:16:00,62.9,59.3,29.91,NW,311,7.0,8.0,88,0.00,,,0.54,WeatherCatV1.02B3,2013-03-31 23:16:00,
2013-03-31 18:21:00,62.9,59.6,29.91,NW,323,6.0,7.0,89,0.00,,,0.54,WeatherCatV1.02B3,2013-03-31 23:21:00,
2013-03-31 18:26:00,62.9,59.6,29.91,NNW,344,7.0,10.0,89,0.00,,,0.54,WeatherCatV1.02B3,2013-03-31 23:26:00,
2013-03-31 18:31:00,62.8,59.2,29.91,NNW,337,9.0,11.0,88,0.00,,,0.54,WeatherCatV1.02B3,2013-03-31 23:31:00,
2013-03-31 18:36:00,62.6,59.0,29.91,NW,321,10.0,12.0,88,0.00,,,0.54,WeatherCatV1.02B3,2013-03-31 23:36:00,
2013-03-31 18:41:00,62.3,58.7,29.91,NNW,331,7.0,11.0,88,0.00,,,0.54,WeatherCatV1.02B3,2013-03-31 23:41:00,
2013-03-31 18:46:00,62.0,58.7,29.91,NNW,331,10.0,12.0,89,0.00,,,0.54,WeatherCatV1.02B3,2013-03-31 23:46:00,
2013-03-31 18:51:00,61.8,58.5,29.91,NW,323,11.0,13.0,89,0.00,,,0.54,WeatherCatV1.02B3,2013-03-31 23:51:00,
2013-03-31 18:56:00,61.5,57.9,29.91,NW,325,10.0,13.0,88,0.00,,,0.54,WeatherCatV1.02B3,2013-03-31 23:56:00,
2013-03-31 19:01:00,61.3,58.0,29.91,NW,325,11.0,11.0,89,0.00,,,0.54,WeatherCatV1.02B3,2013-04-01 00:01:00,
2013-03-31 19:06:00,61.2,57.6,29.91,NW,312,6.0,10.0,88,0.00,,,0.54,WeatherCatV1.02B3,2013-04-01 00:06:00,
2013-03-31 19:11:00,61.0,57.7,29.91,NW,316,8.0,10.0,89,0.00,,,0.54,WeatherCatV1.02B3,2013-04-01 00:11:00,
2013-03-31 19:16:00,60.9,57.6,29.91,NW,319,6.0,7.0,89,0.00,,,0.54,WeatherCatV1.02B3,2013-04-01 00:16:00,
2013-03-31 19:21:00,60.9,57.6,29.91,NW,323,5.0,7.0,89,0.00,,,0.54,WeatherCatV1.02B3,2013-04-01 00:21:00,
2013-03-31 19:26:00,60.9,57.9,29.91,NNW,328,5.0,7.0,90,0.00,,,0.54,WeatherCatV1.02B3,2013-04-01 00:26:00,
2013-03-31 19:31:00,60.9,57.9,29.92,NNW,341,7.0,8.0,90,0.00,,,0.54,WeatherCatV1.02B3,2013-04-01 00:31:00,
2013-03-31 19:36:00,60.9,57.9,29.92,NW,323,4.0,7.0,90,0.00,,,0.54,WeatherCatV1.02B3,2013-04-01 00:36:00,
2013-03-31 19:41:00,60.7,57.7,29.92,NNW,334,4.0,8.0,90,0.00,,,0.54,WeatherCatV1.02B3,2013-04-01 00:41:00,
2013-03-31 19:46:00,60.5,57.5,29.92,NW,323,3.0,5.0,90,0.00,,,0.54,WeatherCatV1.02B3,2013-04-01 00:46:00,
2013-03-31 19:51:00,60.2,57.6,29.92,NW,324,3.0,4.0,91,0.00,,,0.54,WeatherCatV1.02B3,2013-04-01 00:51:00,
2013-03-31 19:56:00,60.0,57.4,29.92,NNW,333,5.0,7.0,91,0.00,,,0.54,WeatherCatV1.02B3,2013-04-01 00:56:00,
2013-03-31 20:01:00,59.8,57.2,29.92,NNW,334,5.0,7.0,91,0.00,,,0.54,WeatherCatV1.02B3,2013-04-01 01:01:00,
2013-03-31 20:06:00,59.6,57.3,29.93,NNW,329,3.0,5.0,92,0.00,,,0.54,WeatherCatV1.02B3,2013-04-01 01:06:00,
2013-03-31 20:11:00,59.5,57.2,29.93,North,350,5.0,6.0,92,0.00,,,0.54,WeatherCatV1.02B3,2013-04-01 01:11:00,
2013-03-31 20:16:00,59.4,57.1,29.93,NNW,334,3.0,6.0,92,0.00,,,0.54,WeatherCatV1.02B3,2013-04-01 01:16:00,
2013-03-31 20:21:00,59.5,57.2,29.93,NNW,341,5.0,8.0,92,0.00,,,0.54,WeatherCatV1.02B3,2013-04-01 01:21:00,
2013-03-31 20:26:00,59.5,57.2,29.94,NNW,328,4.0,6.0,92,0.00,,,0.54,WeatherCatV1.02B3,2013-04-01 01:26:00,
2013-03-31 20:31:00,59.5,57.2,29.94,NNW,333,6.0,6.0,92,0.00,,,0.54,WeatherCatV1.02B3,2013-04-01 01:31:00,
2013-03-31 20:36:00,59.5,57.2,29.94,NW,319,3.0,5.0,92,0.00,,,0.54,WeatherCatV1.02B3,2013-04-01 01:36:00,
2013-03-31 20:41:00,59.5,57.2,29.94,NNW,332,4.0,7.0,92,0.00,,,0.54,WeatherCatV1.02B3,2013-04-01 01:41:00,
2013-03-31 20:46:00,59.4,57.1,29.95,NNW,330,3.0,7.0,92,0.00,,,0.54,WeatherCatV1.02B3,2013-04-01 01:46:00,
2013-03-31 20:51:00,59.3,57.0,29.95,NNW,343,8.0,9.0,92,0.00,,,0.54,WeatherCatV1.02B3,2013-04-01 01:51:00,
2013-03-31 20:56:00,59.3,56.7,29.95,North,350,5.0,7.0,91,0.00,,,0.54,WeatherCatV1.02B3,2013-04-01 01:56:00,
2013-03-31 21:01:00,59.2,56.6,29.95,NNW,342,6.0,6.0,91,0.00,,,0.54,WeatherCatV1.02B3,2013-04-01 02:01:00,
2013-03-31 21:06:00,59.1,56.2,29.96,North,355,7.0,7.0,90,0.00,,,0.54,WeatherCatV1.02B3,2013-04-01 02:06:00,
2013-03-31 21:11:00,59.0,56.1,29.96,NNW,332,7.0,9.0,90,0.00,,,0.54,WeatherCatV1.02B3,2013-04-01 02:11:00,
2013-03-31 21:16:00,58.9,56.0,29.96,North,355,6.0,8.0,90,0.00,,,0.54,WeatherCatV1.02B3,2013-04-01 02:16:00,
2013-03-31 21:21:00,58.8,55.9,29.96,NNW,339,5.0,8.0,90,0.00,,,0.54,WeatherCatV1.02B3,2013-04-01 02:21:00,
2013-03-31 21:26:00,58.6,55.4,29.96,NNW,344,4.0,7.0,89,0.00,,,0.54,WeatherCatV1.02B3,2013-04-01 02:26:00,
2013-03-31 21:31:00,58.4,55.5,29.96,North,355,5.0,8.0,90,0.00,,,0.54,WeatherCatV1.02B3,2013-04-01 02:31:00,
2013-03-31 21:36:00,58.2,55.3,29.96,NNW,333,5.0,6.0,90,0.00,,,0.54,WeatherCatV1.02B3,2013-04-01 02:36:00,
2013-03-31 21:41:00,58.0,55.1,29.96,NNW,336,5.0,5.0,90,0.00,,,0.54,WeatherCatV1.02B3,2013-04-01 02:41:00,
2013-03-31 21:46:00,57.7,54.8,29.96,NNW,339,6.0,7.0,90,0.00,,,0.54,WeatherCatV1.02B3,2013-04-01 02:46:00,
2013-03-31 21:51:00,57.6,55.0,29.96,NNW,338,3.0,4.0,91,0.00,,,0.54,WeatherCatV1.02B3,2013-04-01 02:51:00,
2013-03-31 21:56:00,57.3,54.7,29.96,NNW,334,3.0,5.0,91,0.00,,,0.54,WeatherCatV1.02B3,2013-04-01 02:56:00,
2013-03-31 22:01:00,57.2,54.6,29.96,NNW,334,4.0,4.0,91,0.00,,,0.54,WeatherCatV1.02B3,2013-04-01 03:01:00,
2013-03-31 22:06:00,56.9,54.6,29.96,NNW,334,0.0,0.0,92,0.00,,,0.54,WeatherCatV1.02B3,2013-04-01 03:06:00,
2013-03-31 22:11:00,56.8,54.5,29.97,NNW,334,0.0,0.0,92,0.00,,,0.54,WeatherCatV1.02B3,2013-04-01 03:11:00,
2013-03-31 22:16:00,56.7,54.4,29.97,NNW,334,0.0,0.0,92,0.00,,,0.54,WeatherCatV1.02B3,2013-04-01 03:16:00,
2013-03-31 22:21:00,56.5,54.2,29.97,NNW,334,0.0,0.0,92,0.00,,,0.54,WeatherCatV1.02B3,2013-04-01 03:21:00,
2013-03-31 22:26:00,56.4,54.1,29.97,NNW,334,0.0,0.0,92,0.00,,,0.54,WeatherCatV1.02B3,2013-04-01 03:26:00,
2013-03-31 22:31:00,56.2,53.9,29.97,NNW,334,0.0,0.0,92,0.00,,,0.54,WeatherCatV1.02B3,2013-04-01 03:31:00,
2013-03-31 22:36:00,56.0,54.0,29.97,NNW,334,0.0,0.0,93,0.00,,,0.54,WeatherCatV1.02B3,2013-04-01 03:36:00,
2013-03-31 22:41:00,55.8,53.8,29.97,NNW,334,0.0,0.0,93,0.00,,,0.54,WeatherCatV1.02B3,2013-04-01 03:41:00,
2013-03-31 22:46:00,55.5,53.5,29.97,NNW,334,0.0,0.0,93,0.00,,,0.54,WeatherCatV1.02B3,2013-04-01 03:46:00,
2013-03-31 22:51:00,55.3,53.3,29.97,NNW,334,0.0,0.0,93,0.00,,,0.54,WeatherCatV1.02B3,2013-04-01 03:51:00,
2013-03-31 22:56:00,55.0,53.0,29.97,NNW,334,0.0,0.0,93,0.00,,,0.54,WeatherCatV1.02B3,2013-04-01 03:56:00,
2013-03-31 23:00:00,54.9,52.9,29.97,NNW,334,0.0,0.0,93,0.00,,,0.54,WeatherCatV1.02B3,2013-04-01 04:00:00,
2013-03-31 23:01:00,54.9,52.9,29.97,NNW,334,0.0,0.0,93,0.00,,,0.54,WeatherCatV1.02B3,2013-04-01 04:01:00,
2013-03-31 23:06:00,54.8,53.1,29.97,NNW,334,0.0,0.0,94,0.00,,,0.54,WeatherCatV1.02B3,2013-04-01 04:06:00,
2013-03-31 23:11:00,54.8,53.1,29.97,NNW,334,0.0,0.0,94,0.00,,,0.54,WeatherCatV1.02B3,2013-04-01 04:11:00,
2013-03-31 23:16:00,54.8,53.1,29.97,NNW,334,0.0,0.0,94,0.00,,,0.54,WeatherCatV1.02B3,2013-04-01 04:16:00,
2013-03-31 23:21:00,55.0,53.6,29.97,NNW,334,0.0,0.0,95,0.00,,,0.54,WeatherCatV1.02B3,2013-04-01 04:21:00,
2013-03-31 23:26:00,55.0,53.6,29.97,NNW,334,0.0,0.0,95,0.00,,,0.54,WeatherCatV1.02B3,2013-04-01 04:26:00,
2013-03-31 23:31:00,55.0,53.6,29.97,NNW,334,0.0,0.0,95,0.00,,,0.54,WeatherCatV1.02B3,2013-04-01 04:31:00,
2013-03-31 23:36:00,54.9,53.5,29.96,NNW,334,0.0,0.0,95,0.00,,,0.54,WeatherCatV1.02B3,2013-04-01 04:36:00,
2013-03-31 23:41:00,54.9,53.5,29.97,NNW,334,0.0,0.0,95,0.00,,,0.54,WeatherCatV1.02B3,2013-04-01 04:41:00,
2013-03-31 23:46:00,54.8,53.4,29.97,NNW,334,0.0,0.0,95,0.00,,,0.54,WeatherCatV1.02B3,2013-04-01 04:46:00,
2013-03-31 23:51:00,54.8,53.4,29.97,NNW,334,0.0,0.0,95,0.00,,,0.54,WeatherCatV1.02B3,2013-04-01 04:51:00,
2013-03-31 23:56:00,54.7,53.3,29.97,NNW,334,0.0,0.0,95,0.00,,,0.54,WeatherCatV1.02B3,2013-04-01 04:56:00,